Time,TemperatureF,DewpointF,PressureIn,WindDirection,WindDirectionDegrees,WindSpeedMPH,WindSpeedGustMPH,Humidity,HourlyPrecipIn,Conditions,Clouds,dailyrainin,SoftwareType,DateUTC
2015-01-31 00:14:00,14.7,12.0,30.45,North,355,0.0,0.0,89,0.00,,,0.00,weatherlink.com 1.10,2015-01-31 05:14:00,
2015-01-31 00:29:00,14.3,12.0,30.44,North,355,0.0,0.0,89,0.00,,,0.00,weatherlink.com 1.10,2015-01-31 05:29:00,
2015-01-31 00:44:00,14.2,12.0,30.43,North,355,0.0,0.0,90,0.00,,,0.00,weatherlink.com 1.10,2015-01-31 05:44:00,
2015-01-31 00:59:00,14.3,12.0,30.43,North,355,0.0,0.0,90,0.00,,,0.00,weatherlink.com 1.10,2015-01-31 05:59:00,
2015-01-31 01:14:00,14.0,12.0,30.42,North,355,0.0,0.0,90,0.00,,,0.00,weatherlink.com 1.10,2015-01-31 06:14:00,
2015-01-31 01:29:00,14.1,12.0,30.42,North,355,0.0,0.0,90,0.00,,,0.00,weatherlink.com 1.10,2015-01-31 06:29:00,
2015-01-31 01:44:00,14.2,12.0,30.43,North,355,0.0,0.0,90,0.00,,,0.00,weatherlink.com 1.10,2015-01-31 06:44:00,
2015-01-31 01:59:00,14.1,12.0,30.42,North,355,0.0,0.0,90,0.00,,,0.00,weatherlink.com 1.10,2015-01-31 06:59:00,
2015-01-31 02:14:00,14.1,12.0,30.42,North,355,0.0,0.0,90,0.00,,,0.00,weatherlink.com 1.10,2015-01-31 07:14:00,
2015-01-31 02:29:00,14.0,12.0,30.42,North,355,0.0,0.0,90,0.00,,,0.00,weatherlink.com 1.10,2015-01-31 07:29:00,
2015-01-31 02:44:00,13.9,12.0,30.41,North,355,0.0,0.0,90,0.00,,,0.00,weatherlink.com 1.10,2015-01-31 07:44:00,
2015-01-31 03:14:00,14.2,12.0,30.41,North,355,0.0,0.0,91,0.00,,,0.00,weatherlink.com 1.10,2015-01-31 08:14:00,
2015-01-31 03:29:00,14.5,12.0,30.41,North,355,0.0,1.0,91,0.00,,,0.00,weatherlink.com 1.10,2015-01-31 08:29:00,
2015-01-31 03:44:00,14.7,13.0,30.41,North,355,0.0,2.0,91,0.00,,,0.00,weatherlink.com 1.10,2015-01-31 08:44:00,
2015-01-31 03:59:00,15.2,13.0,30.41,North,355,0.0,1.0,91,0.00,,,0.00,weatherlink.com 1.10,2015-01-31 08:59:00,
2015-01-31 04:14:00,15.7,14.0,30.40,North,355,0.0,0.0,91,0.00,,,0.00,weatherlink.com 1.10,2015-01-31 09:14:00,
2015-01-31 04:29:00,15.2,13.0,30.40,North,355,0.0,2.0,90,0.00,,,0.00,weatherlink.com 1.10,2015-01-31 09:29:00,
2015-01-31 04:44:00,14.8,12.0,30.39,North,355,0.0,2.0,90,0.00,,,0.00,weatherlink.com 1.10,2015-01-31 09:44:00,
2015-01-31 05:14:00,14.5,12.0,30.38,North,355,0.0,1.0,89,0.00,,,0.00,weatherlink.com 1.10,2015-01-31 10:14:00,
2015-01-31 05:29:00,14.8,12.0,30.38,North,355,0.0,3.0,90,0.00,,,0.00,weatherlink.com 1.10,2015-01-31 10:29:00,
2015-01-31 05:44:00,15.7,13.0,30.38,South,175,0.0,4.0,90,0.00,,,0.00,weatherlink.com 1.10,2015-01-31 10:44:00,
2015-01-31 05:59:00,15.5,13.0,30.38,South,175,0.0,3.0,89,0.00,,,0.00,weatherlink.com 1.10,2015-01-31 10:59:00,
2015-01-31 06:14:00,15.2,13.0,30.39,South,175,0.0,2.0,89,0.00,,,0.00,weatherlink.com 1.10,2015-01-31 11:14:00,
2015-01-31 06:29:00,14.8,12.0,30.38,South,175,1.0,3.0,89,0.00,,,0.00,weatherlink.com 1.10,2015-01-31 11:29:00,
2015-01-31 06:44:00,14.9,12.0,30.38,South,175,1.0,2.0,89,0.00,,,0.00,weatherlink.com 1.10,2015-01-31 11:44:00,
2015-01-31 07:14:00,14.9,12.0,30.39,South,175,0.0,1.0,89,0.00,,,0.00,weatherlink.com 1.10,2015-01-31 12:14:00,
2015-01-31 07:29:00,14.8,12.0,30.39,South,175,0.0,1.0,89,0.00,,,0.00,weatherlink.com 1.10,2015-01-31 12:29:00,
2015-01-31 07:44:00,15.0,12.0,30.39,South,175,0.0,0.0,89,0.00,,,0.00,weatherlink.com 1.10,2015-01-31 12:44:00,
2015-01-31 07:59:00,15.1,13.0,30.39,South,175,0.0,2.0,89,0.00,,,0.00,weatherlink.com 1.10,2015-01-31 12:59:00,
2015-01-31 08:14:00,16.2,14.0,30.40,SSW,213,0.0,4.0,89,0.00,,,0.00,weatherlink.com 1.10,2015-01-31 13:14:00,
2015-01-31 08:29:00,17.9,15.0,30.39,SSW,207,1.0,5.0,89,0.00,,,0.00,weatherlink.com 1.10,2015-01-31 13:29:00,
2015-01-31 08:44:00,19.7,17.0,30.39,SSW,200,2.0,7.0,88,0.00,,,0.00,weatherlink.com 1.10,2015-01-31 13:44:00,
2015-01-31 08:59:00,20.9,17.0,30.39,SW,215,0.0,7.0,84,0.00,,,0.00,weatherlink.com 1.10,2015-01-31 13:59:00,
2015-01-31 09:14:00,22.0,17.0,30.39,SW,229,4.0,7.0,81,0.00,,,0.00,weatherlink.com 1.10,2015-01-31 14:14:00,
2015-01-31 09:29:00,22.8,18.0,30.39,SSW,207,4.0,8.0,80,0.00,,,0.00,weatherlink.com 1.10,2015-01-31 14:29:00,
2015-01-31 09:44:00,24.0,19.0,30.39,South,181,0.0,7.0,80,0.00,,,0.00,weatherlink.com 1.10,2015-01-31 14:44:00,
2015-01-31 09:59:00,25.1,19.0,30.39,SW,219,3.0,10.0,78,0.00,,,0.00,weatherlink.com 1.10,2015-01-31 14:59:00,
2015-01-31 10:15:00,26.1,20.0,30.39,SSW,213,1.0,7.0,76,0.00,,,0.00,weatherlink.com 1.10,2015-01-31 15:15:00,
2015-01-31 10:30:00,26.6,20.0,30.40,WSW,252,5.0,6.0,75,0.00,,,0.00,weatherlink.com 1.10,2015-01-31 15:30:00,
2015-01-31 10:45:00,27.5,21.0,30.39,South,178,3.0,8.0,75,0.00,,,0.00,weatherlink.com 1.10,2015-01-31 15:45:00,
2015-01-31 11:00:00,27.9,20.0,30.39,South,190,3.0,9.0,73,0.00,,,0.00,weatherlink.com 1.10,2015-01-31 16:00:00,
2015-01-31 11:15:00,29.0,21.0,30.38,SSW,198,3.0,9.0,73,0.00,,,0.00,weatherlink.com 1.10,2015-01-31 16:15:00,
2015-01-31 11:30:00,30.1,22.0,30.38,SSW,202,4.0,9.0,72,0.00,,,0.00,weatherlink.com 1.10,2015-01-31 16:30:00,
2015-01-31 11:45:00,30.3,22.0,30.37,SW,215,2.0,11.0,70,0.00,,,0.00,weatherlink.com 1.10,2015-01-31 16:45:00,
2015-01-31 12:00:00,31.6,22.0,30.36,WSW,256,6.0,9.0,69,0.00,,,0.00,weatherlink.com 1.10,2015-01-31 17:00:00,
2015-01-31 12:15:00,31.8,22.0,30.35,SW,229,6.0,10.0,68,0.00,,,0.00,weatherlink.com 1.10,2015-01-31 17:15:00,
2015-01-31 12:30:00,32.3,22.0,30.34,WSW,254,4.0,13.0,67,0.00,,,0.00,weatherlink.com 1.10,2015-01-31 17:30:00,
2015-01-31 12:45:00,33.0,23.0,30.34,West,274,4.0,13.0,66,0.00,,,0.00,weatherlink.com 1.10,2015-01-31 17:45:00,
2015-01-31 13:00:00,33.7,23.0,30.33,SW,227,3.0,10.0,65,0.00,,,0.00,weatherlink.com 1.10,2015-01-31 18:00:00,
2015-01-31 13:15:00,33.7,23.0,30.32,SW,227,2.0,12.0,66,0.00,,,0.00,weatherlink.com 1.10,2015-01-31 18:15:00,
2015-01-31 13:30:00,34.5,23.0,30.32,NW,313,3.0,13.0,63,0.01,,,0.01,weatherlink.com 1.10,2015-01-31 18:30:00,
2015-01-31 13:45:00,35.0,24.0,30.31,SW,223,3.0,11.0,64,0.01,,,0.01,weatherlink.com 1.10,2015-01-31 18:45:00,
2015-01-31 14:00:00,35.2,24.0,30.31,WSW,247,2.0,8.0,65,0.01,,,0.01,weatherlink.com 1.10,2015-01-31 19:00:00,
2015-01-31 14:15:00,35.2,24.0,30.30,South,190,2.0,9.0,65,0.01,,,0.01,weatherlink.com 1.10,2015-01-31 19:15:00,
2015-01-31 14:30:00,35.1,24.0,30.30,SSW,200,6.0,10.0,64,0.00,,,0.01,weatherlink.com 1.10,2015-01-31 19:30:00,
2015-01-31 14:45:00,35.1,24.0,30.29,SW,219,4.0,10.0,64,0.00,,,0.01,weatherlink.com 1.10,2015-01-31 19:45:00,
2015-01-31 15:01:00,35.5,24.0,30.29,SW,229,3.0,10.0,63,0.00,,,0.01,weatherlink.com 1.10,2015-01-31 20:01:00,
2015-01-31 15:15:00,35.6,24.0,30.29,WSW,256,2.0,8.0,63,0.00,,,0.01,weatherlink.com 1.10,2015-01-31 20:15:00,
2015-01-31 15:30:00,35.7,24.0,30.28,West,261,3.0,10.0,62,0.00,,,0.01,weatherlink.com 1.10,2015-01-31 20:30:00,
2015-01-31 15:46:00,35.7,23.0,30.28,WSW,238,3.0,9.0,61,0.00,,,0.01,weatherlink.com 1.10,2015-01-31 20:46:00,
2015-01-31 16:00:00,35.5,24.0,30.27,SSW,213,0.0,7.0,62,0.00,,,0.01,weatherlink.com 1.10,2015-01-31 21:00:00,
2015-01-31 16:15:00,35.4,24.0,30.27,SSW,204,4.0,8.0,63,0.00,,,0.01,weatherlink.com 1.10,2015-01-31 21:15:00,
2015-01-31 16:30:00,35.3,24.0,30.27,WSW,251,1.0,10.0,63,0.00,,,0.01,weatherlink.com 1.10,2015-01-31 21:30:00,
2015-01-31 16:45:00,35.1,24.0,30.27,West,261,3.0,8.0,64,0.00,,,0.01,weatherlink.com 1.10,2015-01-31 21:45:00,
2015-01-31 17:00:00,34.9,24.0,30.27,SW,225,0.0,8.0,65,0.00,,,0.01,weatherlink.com 1.10,2015-01-31 22:00:00,
2015-01-31 17:15:00,34.7,24.0,30.27,SW,224,1.0,3.0,66,0.00,,,0.01,weatherlink.com 1.10,2015-01-31 22:15:00,
2015-01-31 17:30:00,34.5,25.0,30.27,SSW,200,3.0,3.0,67,0.00,,,0.01,weatherlink.com 1.10,2015-01-31 22:30:00,
2015-01-31 17:45:00,34.2,25.0,30.28,WSW,248,0.0,2.0,68,0.00,,,0.01,weatherlink.com 1.10,2015-01-31 22:45:00,
2015-01-31 18:01:00,33.8,25.0,30.28,WSW,245,0.0,2.0,69,0.00,,,0.01,weatherlink.com 1.10,2015-01-31 23:01:00,
2015-01-31 18:16:00,33.6,25.0,30.28,WSW,245,0.0,1.0,70,0.00,,,0.01,weatherlink.com 1.10,2015-01-31 23:16:00,
2015-01-31 18:31:00,33.3,25.0,30.28,WSW,245,0.0,2.0,71,0.00,,,0.01,weatherlink.com 1.10,2015-01-31 23:31:00,
2015-01-31 18:46:00,33.4,25.0,30.28,WSW,245,1.0,3.0,70,0.00,,,0.01,weatherlink.com 1.10,2015-01-31 23:46:00,
2015-01-31 19:01:00,33.3,25.0,30.28,SSW,199,2.0,5.0,71,0.00,,,0.01,weatherlink.com 1.10,2015-02-01 00:01:00,
2015-01-31 19:16:00,33.7,25.0,30.27,SSW,200,1.0,5.0,70,0.00,,,0.01,weatherlink.com 1.10,2015-02-01 00:16:00,
2015-01-31 19:31:00,34.0,24.0,30.27,WSW,244,3.0,7.0,68,0.00,,,0.01,weatherlink.com 1.10,2015-02-01 00:31:00,
2015-01-31 19:46:00,34.2,25.0,30.27,SW,231,4.0,6.0,68,0.00,,,0.01,weatherlink.com 1.10,2015-02-01 00:46:00,
2015-01-31 20:01:00,34.2,25.0,30.28,SW,232,1.0,6.0,69,0.00,,,0.01,weatherlink.com 1.10,2015-02-01 01:01:00,
2015-01-31 20:16:00,34.2,25.0,30.27,SW,215,0.0,7.0,69,0.00,,,0.01,weatherlink.com 1.10,2015-02-01 01:16:00,
2015-01-31 20:31:00,34.2,25.0,30.27,SW,235,0.0,5.0,69,0.00,,,0.01,weatherlink.com 1.10,2015-02-01 01:31:00,
2015-01-31 20:46:00,34.1,25.0,30.26,SW,230,0.0,4.0,69,0.00,,,0.01,weatherlink.com 1.10,2015-02-01 01:46:00,
2015-01-31 21:01:00,34.0,25.0,30.26,WSW,257,1.0,3.0,69,0.00,,,0.01,weatherlink.com 1.10,2015-02-01 02:01:00,
2015-01-31 21:16:00,34.1,25.0,30.26,WSW,248,0.0,6.0,69,0.00,,,0.01,weatherlink.com 1.10,2015-02-01 02:16:00,
2015-01-31 21:31:00,34.2,25.0,30.25,SW,218,2.0,4.0,69,0.00,,,0.01,weatherlink.com 1.10,2015-02-01 02:31:00,
2015-01-31 21:46:00,34.3,25.0,30.25,SSW,208,4.0,7.0,69,0.00,,,0.01,weatherlink.com 1.10,2015-02-01 02:46:00,
2015-01-31 22:01:00,34.4,25.0,30.24,West,261,1.0,6.0,69,0.00,,,0.01,weatherlink.com 1.10,2015-02-01 03:01:00,
2015-01-31 22:16:00,34.3,26.0,30.24,WSW,248,3.0,8.0,71,0.00,,,0.01,weatherlink.com 1.10,2015-02-01 03:16:00,
2015-01-31 22:31:00,34.1,26.0,30.24,South,174,4.0,9.0,73,0.00,,,0.01,weatherlink.com 1.10,2015-02-01 03:31:00,
2015-01-31 22:46:00,33.8,26.0,30.24,West,269,2.0,6.0,74,0.00,,,0.01,weatherlink.com 1.10,2015-02-01 03:46:00,
2015-01-31 23:01:00,33.7,27.0,30.24,West,259,2.0,6.0,75,0.00,,,0.01,weatherlink.com 1.10,2015-02-01 04:01:00,
2015-01-31 23:16:00,33.4,27.0,30.23,WSW,257,3.0,5.0,77,0.00,,,0.01,weatherlink.com 1.10,2015-02-01 04:16:00,
2015-01-31 23:31:00,33.0,27.0,30.23,West,263,2.0,5.0,79,0.00,,,0.01,weatherlink.com 1.10,2015-02-01 04:31:00,
2015-01-31 23:46:00,32.6,28.0,30.23,SW,228,0.0,3.0,82,0.00,,,0.01,weatherlink.com 1.10,2015-02-01 04:46:00,